Ellington Field, TX

6:35 PM CST on November 23, 2017 (GMT -0600)
Ellington

Weather History for KEFD - January, 2013

Change the Weather History Date:

Monday, January 21, 2013

  Actual Average Record
Temperature  
Mean Temperature 62 °F -  
Max Temperature 75 °F 63 °F 80 °F (2017)
Min Temperature 48 °F 44 °F 32 °F (2001)
Degree Days  
Heating Degree Days 4    
Growing Degree Days 12 (Base 50)    
Moisture  
Dew Point 50 °F    
Average Humidity 76    
Maximum Humidity 100    
Minimum Humidity 41    
Precipitation  
Precipitation 0.00 in - - ()
Sea Level Pressure  
Sea Level Pressure 30.20 in    
Wind  
Wind Speed 1 mph (SSE)    
Max Wind Speed 6 mph    
Max Gust Speed -    
Visibility 8 miles    
Events Fog    
Averages and records for this station are not official NWS values.
T = Trace of Precipitation, MM = Missing Value Source: NWS Daily Summary

Daily Weather History Graph

Daily Weather History Graph

Search for Another Location

Airport or City:

Trip Planner

Search our weather history database for the weather conditions in past years. The results will help you decide how hot, cold, wet, or windy it might be!

Date:

Astronomy

Jan. 21, 2013 Rise Set
Actual Time 7:15 AM CST 5:49 PM CST
Civil Twilight 6:49 AM CST 6:14 PM CST
Nautical Twilight 6:20 AM CST 6:43 PM CST
Astronomical Twilight 5:52 AM CST 7:12 PM CST
Moon 1:31 PM CST (1/21) 2:43 AM CST (1/21)
Length of Visible Light 11h 25m
Length of Day
10h 34m
Waxing Gibbous, 75% of the Moon is Illuminated
Jan 21
Waxing Gibbous
Jan 26
Full
Feb 3
Last Quarter
Feb 10
New
Feb 17
First Quarter

Hourly Weather History & Observations

Time (CST) Temp. Dew Point Humidity Pressure Visibility Wind Dir Wind Speed Gust Speed Precip Events Conditions
12:50 AM 50.0 °F 48.2 °F 94% 30.18 in 10.0 mi Calm Calm - N/A Fog Shallow Fog
1:50 AM 50.0 °F 48.2 °F 94% 30.18 in 10.0 mi Calm Calm - N/A Fog Shallow Fog
2:50 AM 50.0 °F 48.2 °F 94% 30.18 in 1.0 mi Calm Calm - N/A   Scattered Clouds
3:50 AM 50.0 °F 50.0 °F 100% 30.18 in 0.5 mi Calm Calm - N/A Fog Fog
4:50 AM 50.0 °F 50.0 °F 100% 30.17 in 10.0 mi Calm Calm - N/A Fog Fog
5:50 AM 50.0 °F 50.0 °F 100% 30.17 in 10.0 mi Calm Calm - N/A Fog Fog
6:50 AM 50.0 °F 50.0 °F 100% 30.18 in 0.2 mi Calm Calm - N/A Fog Fog
7:50 AM 48.2 °F 48.2 °F 100% 30.21 in 0.2 mi Calm Calm - N/A Fog Fog
8:50 AM 50.0 °F 48.2 °F 94% 30.22 in 4.0 mi Calm Calm - N/A   Mostly Cloudy
9:50 AM 59.0 °F 57.2 °F 94% 30.26 in 10.0 mi Calm Calm - N/A   Mostly Cloudy
10:50 AM 64.4 °F 57.2 °F 77% 30.27 in 10.0 mi Calm Calm - N/A   Mostly Cloudy
11:50 AM 68.0 °F 57.2 °F 68% 30.25 in 10.0 mi Calm Calm - N/A   Mostly Cloudy
12:50 PM 69.8 °F 57.2 °F 64% 30.23 in 10.0 mi Calm Calm - N/A   Mostly Cloudy
1:50 PM 71.6 °F 57.2 °F 60% 30.20 in 10.0 mi Calm Calm - N/A   Mostly Cloudy
2:50 PM 73.4 °F 57.2 °F 57% 30.20 in 10.0 mi East 4.6 mph - N/A   Mostly Cloudy
3:59 PM 75.2 °F 50.0 °F 41% 30.19 in 10.0 mi ESE 5.8 mph - N/A   Mostly Cloudy
4:50 PM 71.6 °F 46.4 °F 41% 30.18 in 10.0 mi ESE 5.8 mph - N/A   Mostly Cloudy
5:50 PM 68.0 °F 44.6 °F 43% 30.19 in 10.0 mi SE 4.6 mph - N/A   Mostly Cloudy
6:50 PM 60.8 °F 44.6 °F 55% 30.20 in 10.0 mi SSE 5.8 mph - N/A   Scattered Clouds
7:50 PM 59.0 °F 48.2 °F 67% 30.20 in 10.0 mi South 4.6 mph - N/A   Scattered Clouds
8:50 PM 57.2 °F 46.4 °F 67% 30.22 in 10.0 mi South 4.6 mph - N/A   Scattered Clouds
9:50 PM 55.4 °F 46.4 °F 72% 30.22 in 10.0 mi SSW 3.5 mph - N/A   Scattered Clouds
10:50 PM 53.6 °F 44.6 °F 72% 30.22 in 10.0 mi SSW 2.3 mph - N/A   Scattered Clouds
11:50 PM 51.8 °F 44.6 °F 76% 30.22 in 10.0 mi Calm Calm - N/A   Partly Cloudy